Tracking 31027 objects as of 19-Jul-2025
HD Live streaming from Space Station
objects crossing your sky now

SL-16 DEB

Track SL-16 DEB now!
10-day predictions


NORAD ID: 22578
Int'l Code: 1993-016F
Perigee: 648.8 km
Apogee: 799.6 km
Inclination: 71.1 °
Period: 99.1 minutes
Semi major axis: 7095 km
RCS: 0.2871 m2 (medium)
Launch date: March 26, 1993
Source: Commonwealth of Independent States (former USSR) (CIS)
Launch site: TYURATAM MISSILE AND SPACE COMPLEX (TTMTR)

Note: This is SATELLITE DEBRIS
Your satellite tracking list
STARLINK-31009
Track 1 satellite(s)




NASA's NSSDC Master Catalog

Two Line Element Set (TLE):
1 22578U 93016F   25199.39125473  .00000646  00000-0  15977-3 0  9991
2 22578  71.0625 168.9391 0106317  47.8100 113.0542 14.52631262706823
Source of the keplerian elements: AFSPC